Flag for Germany Weather past 2 weeks in Altenburg, Thuringia, Germany

Now
66 °F

Scattered clouds.


Feels Like: 66 °F
Forecast: 51 / 68 °F
Wind: 5 mph from North

Location: Altenburg Nobitz

Current Time: Oct 1, 2014 at 2:40:25 PM

Latest Report: Oct 1, 2014 at 1:50 PM


Visibility: N/A

Pressure: 30.33 "Hg

Humidity: 68%

Dew point: 55 °F

Location of AltenburgLocation

Historic Weather in Altenburg — Graph

°F

Altenburg temperature yesterday

Maximum temperature yesterday: 70 °F (at 1:50 PM)
Minimum temperature yesterday: 59 °F (at 8:20 AM)
Average temperature yesterday: 66 °F

Past Weeks' High & Low Weather Summary

 TemperatureHumidityPressure
High77 °F (Sep 29, 2:20 PM)100% (Sep 19, 8:20 AM)30.39 "Hg (Sep 19, 8:20 AM)
Low48 °F (Sep 22, 1:50 PM)47% (Sep 29, 3:20 PM)29.86 "Hg (Sep 24, 4:50 PM)
Average62 °F74%30.08 "Hg
* Reported Sep 16 1:20 PM — Oct 1 1:50 PM, Altenburg, Weather by CustomWeather, © 2014

Note: Actual official high and low records may vary slightly from our data, if they occured in-between our weather recording intervals... More about our weather records

Advertising

Altenburg weather history for previous 24 hours

 ConditionsComfort  
Time TempWeatherWind HumidityBarometerVisibility
1:50 PM
Oct 1
66 °FScattered clouds.5 mph68%30.33 "HgN/A
1:20 PM66 °FScattered clouds.3 mph64%30.33 "HgN/A
12:50 PM68 °FScattered clouds.2 mph69%30.33 "HgN/A
12:20 PM66 °FScattered clouds.2 mph68%30.33 "Hg5 mi
11:50 AM64 °FScattered clouds.2 mph78%30.33 "Hg4 mi
11:20 AM64 °FScattered clouds.1 mph78%30.33 "Hg4 mi
10:50 AM64 °FFog.3 mph83%30.33 "Hg2 mi
10:20 AM63 °FFog.2 mph94%30.33 "Hg2 mi
9:50 AM61 °FFog.3 mph100%N/A2 mi
9:20 AM59 °FFog.2 mph100%30.33 "Hg1 mi
8:50 AM59 °FDrizzle. Fog.1 mph100%30.33 "Hg1 mi
8:20 AM57 °FFog.1 mph100%30.30 "Hg1 mi
7:20 PM
Sep 30
63 °FSunny.2 mph94%30.27 "Hg10 mi
6:50 PM64 °FScattered clouds.2 mph88%30.27 "HgN/A
6:20 PM66 °FScattered clouds.1 mph83%30.27 "HgN/A
5:50 PM68 °FScattered clouds.1 mph73%30.24 "HgN/A
5:20 PM68 °FScattered clouds.5 mph73%30.24 "HgN/A
4:50 PM68 °FScattered clouds.5 mph69%30.27 "HgN/A
4:20 PM70 °FScattered clouds.5 mph64%30.27 "HgN/A
3:20 PM70 °FScattered clouds.7 mph64%30.27 "HgN/A
2:50 PM70 °FScattered clouds.8 mph60%30.27 "HgN/A
2:20 PM68 °FScattered clouds.8 mph64%30.27 "HgN/A
Weather by CustomWeather, © 2014

See weather overviewHow to use our weather pages